Regional Weather Roundup
Issued by NWS

Home | Current Version | Previous Version | Graphics & Text | Print | Product List | Glossary On
Versions: 1 2 3 4 5 6 7 8 9 10 11 12 13 14 15 16 17 18 19 20 21 22 23 24 25 26 27 28 29 30 31 32 33 34 35 36 37 38 39 40 41 42 43 44 45 46 47 48 49 50
000
ASUS45 KBOI 240410
RWRID

IDAHO REGIONAL WEATHER ROUNDUP
NATIONAL WEATHER SERVICE BOISE ID
900 PM MST FRI FEB 23 2018

NOTE: "FAIR" INDICATES FEW OR NO CLOUDS BELOW 12000 FEET
WITH NO SIGNIFICANT WEATHER AND/OR OBSTRUCTIONS TO VISIBILITY

IDZ012-014-240500-
SOUTHWEST IDAHO


CITY           SKY/WX    TMP DP  RH WIND       PRES   REMARKS
BOISE          CLOUDY    25  14  63 SE5       30.25S WCI  19
CALDWELL       MOCLDY    30  13  49 SW7       30.26F WCI  23
MOUNTAIN HOME  MOCLDY    24  15  67 NE3       30.24F
$$

IDZ016-017-240500-
SOUTHCENTRAL IDAHO


CITY           SKY/WX    TMP DP  RH WIND       PRES   REMARKS
BURLEY         CLEAR     14   5  67 SW13      30.16F WCI   0
JEROME         PTCLDY    20  10  65 SW12      30.18F WCI   8
TWIN FALLS     PTCLDY    14   8  77 S12       30.18F WCI   0
$$

IDZ019>023-240500-
SOUTHEAST IDAHO


CITY           SKY/WX    TMP DP  RH WIND       PRES   REMARKS
IDAHO FALLS    CLEAR     17  12  80 S17       30.09S WCI   1
POCATELLO      CLEAR     19   9  65 SW17      30.14S WCI   4
REXBURG        MOCLDY    16  13  88 S14       30.06F WCI   2
$$

IDZ006-010-011-018-031-032-240500-
CENTRAL IDAHO MOUNTAINS


CITY           SKY/WX    TMP DP  RH WIND       PRES   REMARKS
MCCALL         LGT SNOW  15  11  83 CALM      30.09S FOG
HAILEY         CLEAR     12   5  73 NW7       30.09S WCI   2
STANLEY          N/A     11   2  67 CALM      30.02S
SALMON         CLOUDY    21  12  68 CALM      30.06F
CHALLIS        MOCLDY    25  -1  32 MISG      30.02R
$$

IDZ002-004-006-007-026-240500-
NORTHERN IDAHO


CITY           SKY/WX    TMP DP  RH WIND       PRES   REMARKS
LEWISTON       CLOUDY    28  23  81 E9        30.23F WCI  19
LOWELL           N/A     27  25  92 CALM      30.27F
COEUR D`ALENE  LGT SNOW  21  19  92 S6        30.14F FOG     WCI  13
MULLAN PASS    LGT SNOW   6   3  87 W8G25     29.88F FOG     WCI  -7
$$



USA.gov is the U.S. government's official web portal to all federal, state and local government web resources and services.